sat.trackr.live / text

‹ back to catalog

CBERS 4A

NORAD 44883 · 2019-093E

PAYLOAD ACTIVE UNKNOWN

§ Identity

Operator
Country
CHBZ
Launch date
2019-12-20
Launch site
TAISC
Launch vehicle
Mass (kg)
RCS (m²)

External: N2YO · Heavens-Above · Gunter

§ Orbital elements

Epoch: 2026-05-25T04:40:57.178272Z

Period
97.19 min
Inclination
97.7499°
Eccentricity
0.0000352
Mean motion
14.81610040 rev/d
Perigee alt
624.0 km
Apogee alt
624.5 km
Semi-major
7,002.4 km
B*
3.1603e-5
RAAN
213.1692°
Arg perigee
211.5512°
Mean anomaly
148.5680°
Rev number
34,767

§ Raw data

CBERS 4A1 44883U 19093E   26145.19510623  .00000198  00000+0  31603-4 0  99982 44883  97.7499 213.1692 0000352 211.5512 148.5680 14.81610040347679

JSON: /api/v1/satellites/44883 · /tle

For live sub-satellite position, see the globe view (requires WebGL).

§ Visibility from observer

Set your observer location to see the next 7 days of passes ≥ 10°. The values pass through the URL so the page stays shareable.

No JS? Fill the form by hand. The geolocation button needs JavaScript.

§ Radio — SatNOGS DB

ModeDescriptionDownlinkUplink
FM S-band telemetry 2.204 GHz

1 transmitter · refreshed weekly from db.satnogs.org